GW0115 Weather Reports


time (UTC)temp
F
wind
direction
speed
knots
gust
knots
rain 1hr
in
rain 24hr
in
rain mn
in
humidity
%
barometer
mb
20260507010049 44 0 0.0 0.0 0.04 0.87 0.87 96 1009.0
20260507004554 44 0 0.0 0.0 0.04 0.87 0.87 96 1008.8
20260507003055 44 0 0.0 0.0 0.04 0.85 0.85 96 1008.8
20260507001602 44 0 0.0 0.0 0.03 0.84 0.84 96 1008.4
20260507000052 44 0 0.0 0.0 0.03 0.83 0.83 96 1008.1
20260506234548 44 0 0.0 0.0 0.03 0.83 0.83 96 1007.7
20260506233107 44 0 0.0 0.0 0.02 0.81 0.81 96 1007.5
20260506231550 44 0 0.0 0.0 0.05 0.81 0.81 96 1007.4
20260506230051 44 0 0.0 0.0 0.05 0.80 0.80 96 1007.2
20260506224553 44 0 0.0 0.0 0.06 0.80 0.80 95 1007.2
20260506223052 44 0 0.0 0.0 0.06 0.79 0.79 96 1007.1
20260506221550 44 0 0.0 0.0 0.03 0.76 0.76 95 1007.0
20260506220052 44 0 0.0 0.0 0.02 0.75 0.75 95 1006.9
20260506214552 44 0 0.0 0.0 0.02 0.75 0.74 95 1006.8
20260506213105 44 0 0.0 0.0 0.01 0.74 0.73 95 1006.6
20260506211552 44 0 0.0 0.0 0.02 0.74 0.73 95 1006.5
20260506210055 44 0 0.0 0.0 0.02 0.74 0.73 95 1006.4
20260506204551 44 0 0.0 0.0 0.02 0.73 0.72 95 1006.5
20260506203056 44 0 0.0 0.0 0.02 0.73 0.72 95 1006.2
20260506201555 44 0 0.0 0.0 0.02 0.72 0.71 95 1006.3
20260506200054 44 0 0.0 0.0 0.02 0.72 0.71 95 1006.2
20260506194621 44 0 0.0 0.0 0.02 0.77 0.70 95 1006.4
20260506193103 44 0 0.0 0.0 0.03 0.77 0.70 95 1006.4
20260506191556 44 0 0.0 0.0 0.03 0.76 0.69 95 1006.4
20260506190055 44 0 0.0 4.3 0.03 0.76 0.69 95 1006.4
20260506184555 44 0 0.0 0.0 0.04 0.75 0.68 95 1006.6
20260506183053 44 0 0.0 0.0 0.07 0.74 0.67 95 1006.7
20260506181549 44 0 0.0 2.6 0.09 0.73 0.66 95 1006.8
20260506180106 44 0 0.0 7.8 0.15 0.73 0.66 94 1006.7
20260506174555 44 0 0.0 0.0 0.15 0.71 0.64 95 1006.7
20260506173057 44 0 0.0 3.5 0.13 0.67 0.60 95 1007.0
20260506171602 44 0 0.0 7.0 0.12 0.63 0.56 95 1006.8
20260506170104 44 0 0.0 3.5 0.09 0.58 0.51 94 1007.0
20260506164606 44 0 0.0 3.5 0.09 0.56 0.49 94 1007.1
20260506163119 45 0 0.0 7.0 0.11 0.54 0.47 95 1007.0
20260506161618 45 0 0.0 3.5 0.11 0.51 0.44 95 1007.1
20260506160057 45 0 0.0 2.6 0.12 0.49 0.42 95 1007.2
20260506154610 45 0 0.0 0.0 0.12 0.47 0.40 95 1007.5
20260506153059 45 0 0.0 0.0 0.11 0.43 0.36 95 1007.7
20260506151555 45 0 0.0 0.0 0.12 0.40 0.33 94 1007.7
20260506150123 45 0 0.0 0.0 0.10 0.37 0.30 94 1007.9
20260506144548 45 0 0.0 0.0 0.10 0.35 0.28 94 1008.0
20260506143103 45 0 0.0 0.0 0.08 0.32 0.25 94 1008.1
20260506141553 45 0 0.0 4.3 0.06 0.28 0.21 94 1008.1
20260506140057 45 0 0.0 4.3 0.07 0.27 0.20 93 1008.1
20260506134556 46 0 0.0 3.5 0.08 0.25 0.18 93 1008.0
20260506133048 46 0 0.0 4.3 0.09 0.24 0.17 94 1008.0
20260506131552 46 0 0.0 0.0 0.08 0.22 0.15 93 1008.1
20260506130052 46 0 0.0 3.5 0.07 0.20 0.13 93 1008.2
20260506124550 46 0 0.0 5.2 0.05 0.17 0.10 92 1008.4
20260506123049 47 0 0.0 3.5 0.03 0.15 0.08 91 1008.5
20260506121552 48 0 0.0 4.3 0.03 0.14 0.07 91 1008.2
20260506120057 49 0 0.0 3.5 0.02 0.13 0.06 92 1008.2
20260506114558 49 0 0.0 4.3 0.01 0.12 0.05 91 1007.9
20260506113050 50 0 0.0 7.0 0.01 0.12 0.05 92 1007.8
20260506111554 50 0 0.0 0.0 0.01 0.11 0.04 92 1007.8
20260506110100 51 0 0.0 4.3 0.01 0.11 0.04 92 1007.9
20260506104554 51 0 0.0 0.0 0.01 0.11 0.04 91 1007.6
20260506103051 51 0 0.0 0.0 0.01 0.11 0.04 91 1007.6
20260506101605 52 0 0.0 0.9 0.00 0.10 0.03 92 1007.3
20260506100058 52 0 0.0 0.9 0.00 0.10 0.03 93 1007.1
20260506094615 53 0 0.0 0.0 0.00 0.10 0.03 94 1007.0
20260506093055 53 0 0.0 0.0 0.00 0.10 0.03 94 1007.2
20260506091549 53 0 0.0 0.0 0.00 0.10 0.03 95 1007.5
20260506090049 53 0 0.0 0.0 0.00 0.10 0.03 94 1007.3
20260506084552 53 0 0.0 0.0 0.00 0.10 0.03 94 1007.6
20260506083048 53 0 0.0 0.0 0.00 0.10 0.03 93 1007.7
20260506081550 53 0 0.0 0.0 0.00 0.10 0.03 94 1007.5
20260506073053 54 0 0.0 0.0 0.00 0.10 0.03 94 1007.9
20260506071554 53 0 0.0 0.0 0.01 0.10 0.03 93 1007.9
20260506070104 53 0 0.0 0.0 0.01 0.10 0.03 92 1007.7
20260506061559 55 0 0.0 0.0 0.00 0.09 0.02 93 1007.9
20260506060104 55 0 0.0 0.0 0.00 0.09 0.02 92 1007.8
20260506044554 57 0 0.0 0.0 0.02 0.09 0.02 87 1008.6
20260506043057 58 0 0.0 0.0 0.02 0.09 0.02 85 1008.4
20260506041557 59 0 0.0 0.0 0.01 0.08 0.01 83 1007.9
20260506034603 61 0 0.0 0.0 0.00 0.07 0.07 75 1008.1
20260506033057 61 0 0.0 0.0 0.00 0.07 0.07 76 1007.8
20260506031604 62 0 0.0 0.0 0.00 0.07 0.07 75 1007.7
20260506024556 60 0 0.0 0.0 0.00 0.07 0.07 83 1007.4
20260506023056 59 0 0.0 0.0 0.00 0.07 0.07 85 1007.1
20260506021556 58 0 0.0 0.0 0.00 0.07 0.07 86 1006.7
20260506020057 58 0 0.0 0.0 0.00 0.07 0.07 80 1006.7
20260506014554 59 0 0.0 0.0 0.00 0.07 0.07 84 1006.6
20260506013051 58 0 0.0 0.0 0.00 0.07 0.07 87 1006.2
20260506011553 57 0 0.0 0.0 0.00 0.07 0.07 87 1006.2